Terminal Aerodrome Forecast
Issued by NWS

Home | Current Version | Previous Version | Text Only | Print | Product List | Glossary On
Versions: 1 2 3 4 5 6 7 8 9 10 11 12 13 14 15 16 17 18 19 20 21 22 23 24
000
FTUS44 KFWD 281100
TAFDAL
TAF
KDAL 281136Z 2812/2912 17008KT P6SM SKC WS015/18035KT
     FM281700 18016G26KT P6SM SKC=

USA.gov is the U.S. government's official web portal to all federal, state and local government web resources and services.